Somerville, NJ

11:42 PM EST on November 17, 2017 (GMT -0500)
Somerset

Weather History for KSMQ - January, 2013

Change the Weather History Date:

Sunday, January 20, 2013

  Actual Average Record
Temperature  
Mean Temperature 41 °F -  
Max Temperature 54 °F 37 °F 62 °F (2006)
Min Temperature 28 °F 18 °F -4 °F (1948)
Degree Days  
Heating Degree Days 24    
Moisture  
Dew Point 20 °F    
Average Humidity 53    
Maximum Humidity 92    
Minimum Humidity 22    
Precipitation  
Precipitation 0.00 in - - ()
Sea Level Pressure  
Sea Level Pressure 29.84 in    
Wind  
Wind Speed 4 mph (WNW)    
Max Wind Speed 15 mph    
Max Gust Speed 38 mph    
Visibility 10 miles    
Events      
Averages and records for this station are not official NWS values.
T = Trace of Precipitation, MM = Missing Value Source: NWS Daily Summary

Daily Weather History Graph

Daily Weather History Graph

Search for Another Location

Airport or City:

Trip Planner

Search our weather history database for the weather conditions in past years. The results will help you decide how hot, cold, wet, or windy it might be!

Date:

Astronomy

Jan. 20, 2013 Rise Set
Actual Time 7:17 AM EST 5:02 PM EST
Civil Twilight 6:48 AM EST 5:32 PM EST
Nautical Twilight 6:14 AM EST 6:05 PM EST
Astronomical Twilight 5:42 AM EST 6:37 PM EST
Moon 12:02 PM EST (1/20) 1:47 AM EST (1/20)
Length of Visible Light 10h 44m
Length of Day
9h 44m
Waxing Gibbous, 66% of the Moon is Illuminated
Jan 20
Waxing Gibbous
Jan 26
Full
Feb 3
Last Quarter
Feb 10
New
Feb 17
First Quarter

Hourly Weather History & Observations

Time (EST) Temp. Windchill Dew Point Humidity Pressure Visibility Wind Dir Wind Speed Gust Speed Precip Events Conditions
12:53 AM 32.0 °F - 27.0 °F 82% 29.88 in 10.0 mi Calm Calm - N/A   Clear
1:53 AM 30.0 °F - 27.0 °F 88% 29.86 in 10.0 mi Calm Calm - N/A   Clear
2:53 AM 28.0 °F - 26.1 °F 92% 29.85 in 10.0 mi Calm Calm - N/A   Clear
3:53 AM 28.9 °F - 26.1 °F 89% 29.82 in 10.0 mi Calm Calm - N/A   Clear
4:53 AM 30.0 °F - 27.0 °F 88% 29.78 in 10.0 mi Calm Calm - N/A   Clear
5:53 AM 28.9 °F - 26.1 °F 89% 29.76 in 10.0 mi Calm Calm - N/A   Clear
6:53 AM 28.0 °F - 25.0 °F 88% 29.75 in 10.0 mi Calm Calm - N/A   Clear
7:53 AM 33.1 °F - 27.0 °F 78% 29.75 in 10.0 mi Calm Calm - N/A   Clear
8:53 AM 43.0 °F 39.5 °F 28.9 °F 58% 29.76 in 10.0 mi SW 5.8 mph - N/A   Clear
9:53 AM 48.9 °F - 28.0 °F 44% 29.75 in 10.0 mi Variable 4.6 mph 16.1 mph N/A   Clear
10:53 AM 52.0 °F - 28.0 °F 40% 29.73 in 10.0 mi WSW 9.2 mph 24.2 mph N/A   Clear
11:53 AM 54.0 °F - 28.0 °F 37% 29.71 in 10.0 mi West 10.4 mph 20.7 mph N/A   Clear
12:53 PM 54.0 °F - 21.9 °F 29% 29.71 in 10.0 mi West 15.0 mph 33.4 mph N/A   Clear
1:53 PM 54.0 °F - 15.1 °F 22% 29.72 in 10.0 mi WNW 13.8 mph 24.2 mph N/A   Clear
2:53 PM 51.1 °F - 16.0 °F 25% 29.76 in 10.0 mi WNW 9.2 mph 24.2 mph N/A   Clear
3:53 PM 50.0 °F - 14.0 °F 24% 29.80 in 10.0 mi WNW 12.7 mph 38.0 mph N/A   Clear
4:53 PM 45.0 °F 39.7 °F 12.9 °F 27% 29.85 in 10.0 mi WNW 10.4 mph 25.3 mph N/A   Clear
5:53 PM 42.1 °F 34.5 °F 14.0 °F 32% 29.90 in 10.0 mi WNW 15.0 mph 24.2 mph N/A   Clear
6:53 PM 39.0 °F 34.0 °F 14.0 °F 36% 29.94 in 10.0 mi WNW 6.9 mph 16.1 mph N/A   Clear
7:53 PM 37.0 °F 31.0 °F 12.9 °F 37% 29.99 in 10.0 mi WNW 8.1 mph - N/A   Clear
8:53 PM 35.1 °F 25.5 °F 10.9 °F 37% 30.01 in 10.0 mi NW 15.0 mph 25.3 mph N/A   Clear
9:53 PM 33.1 °F 25.5 °F 10.9 °F 40% 30.02 in 10.0 mi WNW 9.2 mph - N/A   Clear
10:53 PM 30.9 °F 22.2 °F 12.0 °F 46% 30.02 in 10.0 mi NNW 10.4 mph - N/A   Clear
11:53 PM 30.0 °F 25.2 °F 10.9 °F 45% 30.05 in 10.0 mi NW 4.6 mph - N/A   Clear